Tracking 30703 objects as of 12-Jun-2025
HD Live streaming from Space Station
objects crossing your sky now

ONEWEB-0673

Track ONEWEB-0673 now!
10-day predictions
ONEWEB-0673 is classified as:


NORAD ID: 55832
Int'l Code: 2023-029AN
Perigee: 1,191.4 km
Apogee: 1,194.4 km
Inclination: 87.9 °
Period: 109.1 minutes
Semi major axis: 7563 km
RCS: Unknown
Launch date: March 9, 2023
Source: United Kingdom (UK)
Launch site: AIR FORCE EASTERN TEST RANGE (AFETR)
Your satellite tracking list
Your tracking list is empty




NASA's NSSDC Master Catalog

Two Line Element Set (TLE):
1 55832U 23029AN  25162.67477576  .00000043  00000-0  74296-4 0  9993
2 55832  87.9223  18.6038 0001958  91.7969 268.3388 13.19727021110032
Source of the keplerian elements: AFSPC